[[{"header":{"parameterUnit":"m.s-1","parameterCategory":1,"la1":30.2991,"la2":30.254,"lo1":-89.0895,"lo2":-89.0444,"dy":0.0017,"dx":0.0017,"nx":28,"ny":28,"refTime":"2026-02-11T03:00:00:Z","depth":0,"parameterNumber":2,"parameterNumberName":"U-component_of_WINDS"},"data":[0,0,0,0,0,0,0,0,0,0,0,0,0,0,0,0,0,0,0,0,0,0,0,0,0,0,0,0,0,0,0,0,0,0,0,0,0,0,0,0,0,0,0,0,0,0,0,0,0,0,0,0,0,0,0,0,0,0,0.584,0.5841,0,0.589,0.589,0.5891,0.5919,0.592,0.592,0.592,0.597,0.5971,0.5972,0,0,0,0,0,0,0,0,0,0,0,0,0,0.5771,0.5772,0.584,0.5841,0.5842,0.589,0.589,0.5891,0.5919,0.592,0.592,0.592,0.5969,0.5971,0.5972,0,0,0,0,0,0,0,0,0,0,0,0,0,0.5809,0.5773,0.584,0.5862,0.5864,0.5889,0.589,0.5891,0.5919,0.592,0.592,0.592,0.5969,0.5971,0.5973,0.598,0,0,0.5978,0.5979,0,0,0,0,0,0,0,0,0.5807,0.5811,0.5858,0.586,0.5863,0.5899,0.5884,0.5921,0.5919,0.5898,0.592,0.592,0.5946,0.595,0.5959,0.5983,0.5985,0.5978,0.5979,0.598,0.5981,0,0,0,0,0,0,0,0.5804,0.581,0.586,0.5858,0.5862,0.5869,0.5874,0.5891,0.5921,0.59,0.5902,0.5908,0.5947,0.5957,0.596,0.5986,0.5978,0.598,0.5981,0.5982,0.602,0.602,0,0,0,0,0,0,0.5798,0.5807,0.5858,0.5861,0.5835,0.587,0.5876,0.5887,0.592,0.5926,0.5908,0.5909,0.5953,0.5958,0.5962,0.5974,0.598,0.5982,0.5983,0.6021,0.602,0.602,0,0,0,0,0,0,0.5797,0.5802,0.5856,0.5835,0.5842,0.5871,0.5883,0.5888,0.5897,0.5926,0.5931,0.5912,0.5954,0.5959,0.5976,0.5976,0.5983,0.5984,0.6021,0.6021,0.602,0.5998,0,0,0,0,0,0,0.5794,0.5802,0.5805,0.5835,0.5843,0.5869,0.5883,0.5889,0.59,0.5903,0.5931,0.5936,0.5954,0.5973,0.5978,0.5979,0.5986,0.6021,0.6021,0.602,0.5999,0.5997,0.5996,0,0,0,0,0,0.5792,0.5796,0.5805,0.5811,0.5848,0.5869,0.5874,0.5895,0.59,0.5904,0.5923,0.5935,0.5976,0.5975,0.598,0.5982,0.6021,0.6021,0.602,0.6,0.5998,0.5996,0,0,0,0,0,0,0.5765,0.58,0.581,0.5824,0.5844,0.5874,0.5879,0.5892,0.591,0.5911,0.5936,0.5942,0.5957,0.5971,0.5969,0.5992,0.6,0.6001,0.5982,0.598,0.5979,0.5975,0.5987,0,0,0,0,0,0.576,0.5775,0.5805,0.5815,0.5824,0.585,0.586,0.5874,0.5895,0.5903,0.5923,0.5943,0.5961,0.5971,0.5989,0.6001,0.6009,0.6005,0.6004,0.6002,0.6003,0.6012,0.6011,0.602,0.602,0.602,0,0,0.5752,0.5773,0.578,0.581,0.5827,0.5841,0.5856,0.5871,0.5882,0.5906,0.5923,0.5938,0.5962,0.5977,0.5985,0.599,0.6002,0.6002,0.6001,0.6002,0.6012,0.6011,0.601,0.602,0.602,0.602,0,0,0.5743,0.576,0.5771,0.5787,0.5813,0.583,0.5833,0.5861,0.5873,0.5891,0.5909,0.5923,0.5952,0.5968,0.598,0.598,0.5993,0.5985,0.5977,0.5985,0.5984,0.5984,0.5984,0.5984,0.5985,0.5985,0.5985,0,0.5729,0.5752,0.5774,0.5788,0.5801,0.5824,0.5835,0.585,0.5879,0.5888,0.5893,0.593,0.5948,0.5968,0.5968,0.5977,0.5981,0.5981,0.5983,0.5982,0.5982,0.5983,0.5983,0.5984,0.5984,0.5984,0.5984,0,0.5733,0.5749,0.5754,0.5783,0.5796,0.5809,0.5834,0.5845,0.5858,0.5875,0.5894,0.5916,0.5939,0.5945,0.5958,0.5967,0.5969,0.5978,0.5986,0.598,0.5981,0.5982,0.5983,0.5983,0.5983,0.5984,0,0,0.5708,0.575,0.5752,0.5765,0.5796,0.5808,0.5822,0.5845,0.5854,0.5874,0.5887,0.5911,0.592,0.5934,0.595,0.5957,0.5956,0.5965,0.5966,0.5963,0.5969,0.5962,0.5962,0.5965,0.5965,0.5966,0.5967,0,0.5704,0.573,0.5752,0.577,0.5785,0.5807,0.582,0.584,0.5856,0.5872,0.589,0.5908,0.5918,0.5927,0.5935,0.5955,0.5958,0.5955,0.5978,0.5978,0.5971,0.5962,0.5955,0.5955,0.5967,0.5968,0.5968,0,0.5703,0.5723,0.5742,0.5772,0.578,0.579,0.5813,0.5828,0.5852,0.5863,0.5879,0.5896,0.5912,0.5919,0.5942,0.594,0.5951,0.5962,0.5963,0.5965,0.5972,0.5965,0.5956,0.5956,0.5968,0.5968,0.5968,0,0.5683,0.5715,0.5731,0.5742,0.5777,0.5784,0.5799,0.5823,0.5836,0.5856,0.5865,0.5887,0.5899,0.5916,0.5938,0.5941,0.5959,0.5968,0.597,0.5969,0.5972,0.5972,0.5964,0.5979,0.5979,0.5979,0.5979,0,0.5676,0.5688,0.5723,0.5733,0.5746,0.5771,0.5784,0.5801,0.5823,0.5837,0.5857,0.587,0.5899,0.5915,0.5933,0.595,0.5955,0.5965,0.597,0.5963,0.5962,0.5971,0.5971,0.5979,0.5979,0.5979,0.5979,0,0.5656,0.568,0.57,0.5732,0.574,0.5749,0.5777,0.5788,0.5806,0.5823,0.5829,0.5858,0.5878,0.5902,0.593,0.5942,0.5958,0.5965,0.595,0.5953,0.5954,0.5953,0.5952,0.5953,0.5966,0.5966,0.5966,0,0.5651,0.566,0.5694,0.5705,0.5719,0.5737,0.575,0.5776,0.5789,0.5817,0.5825,0.5847,0.5866,0.5898,0.5922,0.5944,0.5951,0.5949,0.5954,0.5948,0.5952,0.5951,0.5952,0.5947,0.5947,0.5947,0.5947,0,0.5638,0.565,0.5668,0.5692,0.5707,0.5726,0.5747,0.5754,0.5784,0.5798,0.5819,0.5834,0.5864,0.5886,0.5911,0.5927,0.5942,0.5945,0.5947,0.594,0.5932,0.5937,0.5946,0.5945,0.5945,0.5945,0.5945,0.5945,0.5626,0.5635,0.5661,0.5681,0.5699,0.5718,0.573,0.5751,0.5769,0.5795,0.5809,0.5831,0.5855,0.5891,0.5907,0.5924,0.5929,0.5931,0.5932,0.5932,0.5931,0.5929,0.5929,0.5929,0.5929,0.5929,0.5929,0,0.5615,0.5633,0.5651,0.5679,0.5695,0.5709,0.5732,0.5745,0.5763,0.5785,0.5804,0.5829,0.5851,0.5877,0.5901,0.591,0.5918,0.5915,0.5915,0.5919,0.5925,0.5921,0.5909,0.5909,0.5909,0.5909,0.5909,0.5909,0.5611,0.5629,0.5643,0.5671,0.5689,0.571,0.5722,0.574,0.5758,0.5785,0.5804,0.5821,0.5845,0.5871,0.5891,0.5899,0.5907,0.5902,0.5912,0.5916,0.5918,0.592,0.5916,0.5904,0.5904,0.5904,0.5904,0.5904]},{"header":{"parameterUnit":"m.s-1","parameterCategory":1,"la1":30.2991,"la2":30.254,"lo1":-89.0895,"lo2":-89.0444,"dy":0.0017,"dx":0.0017,"nx":28,"ny":28,"refTime":"2026-02-11T03:00:00:Z","depth":0,"parameterNumber":3,"parameterNumberName":"V-component_of_WINDS"},"data":[0,0,0,0,0,0,0,0,0,0,0,0,0,0,0,0,0,0,0,0,0,0,0,0,0,0,0,0,0,0,0,0,0,0,0,0,0,0,0,0,0,0,0,0,0,0,0,0,0,0,0,0,0,0,0,0,0,0,-0.8824,-0.8824,0,-0.8844,-0.8844,-0.8844,-0.8834,-0.8833,-0.8833,-0.8832,-0.8852,-0.8853,-0.8854,0,0,0,0,0,0,0,0,0,0,0,0,0,-0.8777,-0.8778,-0.8824,-0.8824,-0.8824,-0.8844,-0.8844,-0.8844,-0.8834,-0.8833,-0.8833,-0.8832,-0.8851,-0.8853,-0.8854,0,0,0,0,0,0,0,0,0,0,0,0,0,-0.8797,-0.8779,-0.8824,-0.8822,-0.8822,-0.8843,-0.8844,-0.8844,-0.8834,-0.8833,-0.8833,-0.8832,-0.8851,-0.8853,-0.8854,-0.8879,0,0,-0.8859,-0.8859,0,0,0,0,0,0,0,0,-0.8796,-0.8799,-0.8822,-0.8822,-0.8822,-0.8836,-0.8834,-0.8856,-0.8834,-0.8829,-0.8832,-0.8832,-0.8847,-0.8849,-0.8854,-0.888,-0.888,-0.8859,-0.886,-0.886,-0.8861,0,0,0,0,0,0,0,-0.8795,-0.8798,-0.8832,-0.8822,-0.8822,-0.882,-0.8822,-0.8838,-0.8842,-0.883,-0.8829,-0.8832,-0.8847,-0.8853,-0.8854,-0.8881,-0.8859,-0.886,-0.8861,-0.8861,-0.8928,-0.8928,0,0,0,0,0,0,-0.8794,-0.8797,-0.8831,-0.8832,-0.8807,-0.8821,-0.8823,-0.8832,-0.8842,-0.8843,-0.8832,-0.8831,-0.8851,-0.8853,-0.8855,-0.8885,-0.886,-0.8862,-0.8862,-0.8927,-0.8928,-0.8929,0,0,0,0,0,0,-0.8793,-0.8797,-0.883,-0.8815,-0.8819,-0.8823,-0.8833,-0.8833,-0.8839,-0.8844,-0.8845,-0.8838,-0.885,-0.8853,-0.8873,-0.8885,-0.8862,-0.8864,-0.8926,-0.8927,-0.8928,-0.8944,0,0,0,0,0,0,-0.8791,-0.8796,-0.8806,-0.8815,-0.8819,-0.8848,-0.8833,-0.8834,-0.8841,-0.884,-0.8849,-0.885,-0.885,-0.8871,-0.8874,-0.8887,-0.8865,-0.8925,-0.8926,-0.8928,-0.8942,-0.8945,-0.8948,0,0,0,0,0,-0.879,-0.8809,-0.8806,-0.8811,-0.8831,-0.8849,-0.8851,-0.8851,-0.8842,-0.8852,-0.8855,-0.885,-0.8883,-0.8873,-0.8877,-0.889,-0.8924,-0.8926,-0.8928,-0.8941,-0.8945,-0.8948,0,0,0,0,0,0,-0.8801,-0.881,-0.8807,-0.883,-0.8839,-0.8847,-0.8859,-0.8855,-0.8866,-0.8864,-0.8863,-0.8865,-0.8886,-0.889,-0.8878,-0.8914,-0.8902,-0.8905,-0.8911,-0.8915,-0.8918,-0.8916,-0.8866,0,0,0,0,0,-0.8807,-0.882,-0.8827,-0.8847,-0.8851,-0.8855,-0.8862,-0.8861,-0.887,-0.8873,-0.8878,-0.8886,-0.8899,-0.8907,-0.8919,-0.8943,-0.8945,-0.8954,-0.8957,-0.8959,-0.8962,-0.8975,-0.8979,-0.8935,-0.8935,-0.8935,0,0,-0.8818,-0.8824,-0.8833,-0.885,-0.8856,-0.887,-0.8858,-0.8873,-0.8883,-0.8875,-0.8894,-0.8898,-0.8908,-0.893,-0.894,-0.8934,-0.8974,-0.8962,-0.8964,-0.8965,-0.8977,-0.8981,-0.8985,-0.8936,-0.8936,-0.8936,0,0,-0.8845,-0.8851,-0.8868,-0.8875,-0.8885,-0.8887,-0.8891,-0.89,-0.8903,-0.8922,-0.8917,-0.8929,-0.895,-0.8957,-0.8963,-0.8994,-0.8989,-0.8998,-0.9013,-0.9026,-0.9029,-0.9032,-0.9043,-0.9047,-0.9,-0.9,-0.9,0,-0.8857,-0.8878,-0.8878,-0.8893,-0.89,-0.8895,-0.8912,-0.8919,-0.8932,-0.8937,-0.8931,-0.8958,-0.8964,-0.8987,-0.8995,-0.9,-0.9005,-0.8996,-0.9029,-0.9032,-0.9035,-0.9045,-0.9049,-0.9001,-0.9001,-0.9001,-0.9001,0,-0.8892,-0.8907,-0.8919,-0.8932,-0.8941,-0.8958,-0.896,-0.8969,-0.8968,-0.897,-0.899,-0.8997,-0.901,-0.9016,-0.9014,-0.9039,-0.9035,-0.9029,-0.9016,-0.904,-0.9049,-0.9053,-0.9002,-0.9002,-0.9002,-0.9002,0,0,-0.8926,-0.894,-0.8944,-0.895,-0.8961,-0.8972,-0.8989,-0.9002,-0.9009,-0.9019,-0.9032,-0.9051,-0.9045,-0.9052,-0.9052,-0.9063,-0.9086,-0.9055,-0.9055,-0.906,-0.9114,-0.9118,-0.9123,-0.9083,-0.9084,-0.9085,-0.9113,0,-0.8954,-0.8982,-0.8983,-0.9008,-0.9022,-0.9017,-0.9031,-0.9039,-0.9042,-0.9054,-0.9057,-0.9071,-0.9062,-0.9066,-0.9077,-0.9081,-0.9097,-0.9079,-0.9095,-0.9096,-0.9093,-0.9128,-0.9133,-0.9159,-0.9117,-0.9117,-0.9118,0,-0.8989,-0.9,-0.9028,-0.9037,-0.9042,-0.9055,-0.9067,-0.9079,-0.9088,-0.9089,-0.9098,-0.9096,-0.9112,-0.91,-0.9122,-0.911,-0.9117,-0.912,-0.9121,-0.9122,-0.9108,-0.9129,-0.9167,-0.9171,-0.9124,-0.9123,-0.9123,0,-0.9011,-0.9033,-0.9052,-0.9057,-0.9068,-0.9077,-0.9083,-0.9091,-0.9099,-0.911,-0.9115,-0.9128,-0.9134,-0.9144,-0.9145,-0.9136,-0.9168,-0.9156,-0.9169,-0.9169,-0.9175,-0.9175,-0.9215,-0.9181,-0.9181,-0.9181,-0.918,0,-0.9041,-0.9058,-0.9062,-0.9073,-0.9092,-0.9093,-0.9111,-0.9116,-0.9123,-0.9136,-0.9133,-0.9144,-0.9146,-0.9158,-0.9159,-0.9177,-0.918,-0.9182,-0.9182,-0.9182,-0.9181,-0.9186,-0.9184,-0.9182,-0.9181,-0.9181,-0.9181,0,-0.9068,-0.9071,-0.9092,-0.9101,-0.9104,-0.9117,-0.9125,-0.9136,-0.9139,-0.9155,-0.9159,-0.9164,-0.9178,-0.918,-0.9197,-0.9197,-0.9219,-0.9218,-0.9216,-0.9216,-0.9229,-0.9228,-0.9272,-0.9278,-0.9241,-0.9241,-0.9242,0,-0.9087,-0.91,-0.9111,-0.9119,-0.9124,-0.9138,-0.9146,-0.9147,-0.9156,-0.9168,-0.9178,-0.9191,-0.9202,-0.9225,-0.923,-0.9243,-0.9241,-0.9256,-0.9243,-0.9242,-0.9241,-0.924,-0.9241,-0.9258,-0.9258,-0.9259,-0.9259,0,-0.912,-0.9121,-0.9133,-0.9146,-0.9156,-0.9166,-0.9175,-0.9182,-0.9185,-0.9195,-0.9209,-0.9218,-0.9235,-0.9249,-0.9261,-0.9267,-0.9263,-0.9263,-0.9267,-0.9267,-0.9265,-0.9266,-0.9222,-0.9262,-0.9262,-0.9261,-0.9261,-0.9261,-0.9143,-0.9154,-0.9164,-0.9177,-0.9185,-0.9194,-0.9205,-0.9209,-0.9222,-0.9236,-0.9236,-0.9252,-0.9261,-0.9278,-0.9284,-0.9296,-0.9291,-0.9297,-0.9298,-0.9299,-0.93,-0.9264,-0.9298,-0.9298,-0.9298,-0.9298,-0.9298,0,-0.9175,-0.9181,-0.9194,-0.9208,-0.9218,-0.9215,-0.9225,-0.9234,-0.9248,-0.9257,-0.9269,-0.9285,-0.9299,-0.9305,-0.9318,-0.9327,-0.9326,-0.933,-0.9329,-0.933,-0.9304,-0.9299,-0.9331,-0.9331,-0.9331,-0.9331,-0.9331,-0.9331,-0.9193,-0.9212,-0.9215,-0.9237,-0.9243,-0.9258,-0.9265,-0.9273,-0.928,-0.9299,-0.931,-0.9315,-0.9322,-0.9336,-0.9348,-0.935,-0.9355,-0.936,-0.9361,-0.9336,-0.9332,-0.9329,-0.9325,-0.9361,-0.9361,-0.9386,-0.9386,-0.9386]}]]